Simultaneous Nadir Overpasses (SNOs) Predictions

Prediction of SNOs near US between AQUA and NPP Satellite Orbit:

Table of predicted SNOs near US for the next 10.0 days since TLE Epoch: 3/15/2019
Index Date (AQUA) Time (AQUA) AQUA Lat,Lon Date (NPP) Time (NPP) NPP Lat,Lon Distance(km) Time Diff (sec)
1 03/16/2019 18:17:17 49.98, -80.18 03/16/2019 18:10:17 49.69, -81.73 116.01 420
2 03/16/2019 19:56:10 49.97,-104.90 03/16/2019 19:51:45 49.58,-107.06 161.23 265
3 03/16/2019 21:31:20 36.67,-124.99 03/16/2019 21:29:24 36.21,-127.56 236.11 116
4 03/19/2019 09:24:54 20.03,-114.25 03/19/2019 09:16:34 19.79,-114.79 62.58 500
5 03/22/2019 06:31:12 44.74, -65.64 03/22/2019 06:30:43 45.11, -67.65 163.51 29
6 03/22/2019 08:08:38 49.91, -88.36 03/22/2019 08:10:41 50.40, -90.82 183.81 123
7 03/22/2019 09:47:31 49.92,-113.08 03/22/2019 09:52:09 50.51,-116.15 228.18 278
8 03/24/2019 19:06:49 50.00, -92.57 03/24/2019 19:00:57 49.67, -94.39 135.79 352
9 03/24/2019 20:45:41 49.99,-117.29 03/24/2019 20:42:24 49.56,-119.72 181.04 197




NCC Satellite Simultaneous Nadir Overpasses (SNOs) Prediction Service
